Погода в Дабуже

Россия / Калужская область     54°13′32″N   34°49′15″E
темп.,
°C
ветер,
м/с
пор.,
м/с
влажн.,
%
обл.,
%
осадки,
мм/ч
давл.,
гПа
погр.,
м
27 января, чт
чт2700:00−18сз11100100 0.0 10209
03:00−19юз11100100 0.1 102010
06:00−17юз23100100 0.0 101943
09:00−14ю2699100 0.1 1017111
12:00−10ююз489497 0.0 1016269
15:00−9ю4109498 0.0 1014413
18:00−10ю51195100 0.0 1013357
21:00−10ю5129596 0.1 1011335
28 января, пт
пт2800:00−10ю5129487 0.1 1009319
03:00−8ю51294100 0.3 1007331
06:00−6ю61495100 0.4 1004450
09:00−5ю61395100 1.2 1003499
12:00−3ю51294100 0.4 1002510
15:00−1ю4997100 0.8 1000567
18:00−1ююз4997100 0.5 1000422
21:00−1ю3998100 0.9 1000399
29 января, сб
сб2900:00−2ю3798100 0.3 1001285
03:00−2ююз379884 0.6 1001218
06:00−2ююз2597100 0.0 1001210
09:00−3ю2498100 0.3 1003105
12:00−1з249794 0.6 1004322
15:00−2сз599390 0.9 1005486
18:00−5сз499499 0.1 1008397
21:00−6зсз4790100 0.2 1008490
30 января, вс
вс3000:00−6зюз3794100 0.1 1008442
03:00−7ююз41092100 0.1 1005452
06:00−7ю61691100 0.0 999494
09:00−5ю81794100 1.3 994878
12:00−4ююз81694100 1.8 989813
15:00−2ююз71595100 3.4 986730
18:000юз6129480 1.1 985673
21:00−2ююз51095100 1.3 985482
31 января, пн
пн3100:00−2ю4991100 0.1 984440
03:00−2вюв41097100 0.6 982508
06:00−2юв3898100 2.1 981433
09:00−3св129887 3.7 98247
12:00−2сз479699 0.1 985403
15:00−2сз5990100 0.2 987689
18:00−5з61293100 0.3 991422
21:00−7з51292100 0.4 994490